Regional Weather Roundup
Issued by NWS

Home | Current Version | Previous Version | Graphics & Text | Print | Product List | Glossary On
Versions: 1 2 3 4 5 6 7 8 9 10 11 12 13 14 15 16 17 18 19 20 21 22 23 24 25 26 27 28 29 30 31 32 33 34 35 36 37 38 39 40 41 42 43 44 45 46 47 48 49 50
702
ASUS45 KPSR 220210
RWRAZ

ARIZONA HOURLY REGIONAL WEATHER ROUNDUP
NATIONAL WEATHER SERVICE PHOENIX AZ
700 PM MST SAT JAN 21 2017

NOTE: FAIR INDICATES FEW OR NO CLOUDS BELOW 12,000 FEET WITH NO
SIGNIFICANT WEATHER AND/OR OBSTRUCTIONS TO VISIBILITY.

AZZ001>003-036-220300-
NORTHWEST ARIZONA

CITY           SKY/WX    TMP DP  RH WIND       PRES   REMARKS
BULLHEAD CITY  CLEAR     55  37  50 SE9       29.92R
KINGMAN        CLEAR     42  25  50 SW12      29.94R
$$

AZZ004>008-015-016-018-220300-
NORTH CENTRAL ARIZONA

CITY           SKY/WX    TMP DP  RH WIND       PRES   REMARKS
GRAND CANYON   PTCLDY    22  19  89 CALM      29.91R
WILLIAMS       CLEAR     27  21  80 W7        29.92R WCI  19
PRESCOTT       PTCLDY    34  29  82 SW12      29.95R WCI  25
FLAGSTAFF      CLEAR     25  21  85 W6        29.91R WCI  18
PAYSON         PTCLDY    34  30  86 W6        29.97R WCI  29
PAGE           CLEAR     42  19  39 W9        29.84R
$$

AZZ009>014-017-220300-
NORTHEAST ARIZONA

CITY           SKY/WX    TMP DP  RH WIND       PRES   REMARKS
WINSLOW        CLEAR     36  25  64 W15       29.90R WCI  27
SAINT JOHNS    PTCLDY    34  23  64 W20G30    29.86R WCI  23
SHOW LOW       PTCLDY    25  23  93 SW9       29.92R WCI  15
$$

AZZ023-220300-
GREATER PHOENIX AREA

CITY           SKY/WX    TMP DP  RH WIND       PRES   REMARKS
PHOENIX        PTCLDY    54  35  48 W9        29.96R
BUCKEYE        CLEAR     52  36  54 NW7       29.98R
GLENDALE       PTCLDY    55  36  47 SW6       29.98R
LUKE AFB       CLEAR     52  38  58 W5        29.96R
DEER VALLEY    CLEAR     51  35  54 CALM      29.96R
SCOTTSDALE     CLEAR     52  33  48 CALM      29.98R
MESA-FALCON    PTCLDY   N/A N/A N/A SW9       29.95R
MESA-GATEWAY   PTCLDY    50  37  62 SW7       29.99R
CHANDLER       CLEAR     54  36  50 SW6       29.98R
$$

AZZ027-028-220300-
SOUTHWEST MARICOPA COUNTY AND PINAL COUNTY

CITY           SKY/WX    TMP DP  RH WIND       PRES   REMARKS
CASA GRANDE    CLEAR     51  37  58 CALM      30.00R
GILA BEND      FAIR      54  39  56 SW8       29.99R
$$

AZZ503-504-507>509-220300-
SOUTHEAST ARIZONA

CITY           SKY/WX    TMP DP  RH WIND       PRES   REMARKS
TUCSON         PTCLDY    50  30  46 W6        30.02R
DAVIS-MONTHAN  PTCLDY    49  29  46 W7        30.00R
RYAN FIELD     CLEAR     48  32  53 W7        30.01R
NOGALES        CLEAR     43  26  51 W5        30.02R
SIERRA VISTA   CLEAR     39  23  52 W13       30.00R WCI  32
DOUGLAS        CLEAR     41  26  55 NW14      29.98R
SAFFORD        PTCLDY    42  33  70 NW8       29.93R
$$

AZZ020-021-025-026-031-220300-
SOUTHWEST ARIZONA

CITY           SKY/WX    TMP DP  RH WIND       PRES   REMARKS
YUMA           CLEAR     58  39  49 W8        29.97R
$$

CAZ031-033-041-043-047-048-061-220300-
SOUTHERN CALIFORNIA

CITY           SKY/WX    TMP DP  RH WIND       PRES   REMARKS
DOWNTOWN L.A.  MOCLDY    57  46  66 CALM      30.01R
L.A. AIRPORT   MOCLDY    56  47  71 SW7       30.01R
SAN DIEGO      MOCLDY    57  44  62 CALM      30.07R
BURBANK        MOCLDY    54  41  61 SE8       29.99R
ONTARIO        CLOUDY    52  44  74 SW8       30.01R
RIVERSIDE      CLOUDY    52  45  77 NW3       30.01R
PALM SPRINGS   CLEAR     58  37  45 NW3       29.96R
EL CENTRO NAS  PTCLDY    56  39  53 SW10      29.99R
IMPERIAL       PTCLDY    56  41  57 W14       29.96R
BLYTHE         CLEAR     57  41  55 SW7       29.94R
NEEDLES        CLEAR     57  35  43 W10       29.92R
$$

NVZ020-UTZ003-220300-
SOUTHERN NEVADA-UTAH

CITY           SKY/WX    TMP DP  RH WIND       PRES   REMARKS
LAS VEGAS      PTCLDY    51  29  42 S6        29.90R
SALT LAKE CITY MOCLDY    32  28  85 S3        29.82R
$$

NMZ009-TXZ055-220300-
NEW MEXICO-WEST TEXAS

CITY           SKY/WX    TMP DP  RH WIND       PRES   REMARKS
ALBUQUERQUE    MOCLDY    38  22  52 W13       29.68R WCI  30
EL PASO        PTCLDY    46  22  38 W38G59    29.78R
$$


........................KEY........................
SKY/WX - SKY CONDITION/WEATHER
TMP    - TEMPERATURE IN FAHRENHEIT
DP     - DEW POINT IN FAHRENHEIT
RH     - RELATIVE HUMIDITY IN PERCENT
WIND   - DIRECTION AND SPEED IN MILES PER HOUR (MPH)
VRB    - VARIABLE WIND DIRECTION
PRES   - MEAN SEA LEVEL PRESSURE IN INCHES OF MERCURY
         F - FALLING PRESSURE   R - RISING PRESSURE
         S - STEADY PRESSURE
VSB    - VISIBILITY IN MILES
HX     - HEAT INDEX IN FAHRENHEIT
WCI    - WIND CHILL INDEX IN FAHRENHEIT
TC     - TEMPERATURE IN CELSIUS WHICH IS ALSO KNOWN AS
         TEMPERATURE IN CENTIGRADE
AFB    - AIR FORCE BASE
         LUKE AFB IS LUKE AIR FORCE BASE
         DAVIS-MONTHAN IS DAVIS-MONTHAN AIR FORCE BASE
NAS    - NAVAL AIR STATION
         EL CENTRO NAS IS EL CENTRO NAVAL AIR STATION
N/A    - NOT AVAILABLE





USA.gov is the U.S. government's official web portal to all federal, state and local government web resources and services.